Location: Unspecified
(0.0000°N, 0.0000°E)
Time: 10:45:29
(UTC+02:00)

Centaur D-1AR AC-41 - Visible Passes

Search period start: 20 August 2014 00:00
Search period end: 30 August 2014 00:00
Orbit: 670 x 36173 km, 21.4° (Epoch: 19 August)

Date Brightness Start Highest point End Pass type
(mag) Time Alt. Az. Time Alt. Az. Time Alt. Az.
20 Aug 10.3 00:43:13 10° E 01:49:47 14° E 02:36:37 10° E visible
20 Aug 9.7 05:37:15 10° WNW 06:46:35 18° WNW 08:41:16 10° W visible
21 Aug 6.6 02:25:42 10° WNW 04:27:35 55° WNW 12:28:17 10° SE visible
21 Aug 8.1 23:45:29 10° WNW 04:12:34 81° NNW 09:56:29 10° SE visible
22 Aug 8.0 21:11:43 10° WNW 05:20:20 77° ESE 07:21:20 10° ESE visible
23 Aug 9.9 22:59:56 10° E 03:00:43 36° E 04:33:44 10° ESE visible
25 Aug 9.3 03:53:46 10° WNW 05:32:29 34° WNW 09:26:48 10° W visible
26 Aug 7.3 01:03:30 10° WNW 03:30:18 70° NW 11:11:15 10° SE visible
26 Aug 8.1 22:27:02 10° WNW 04:38:40 89° NNW 08:38:25 10° ESE visible
27 Aug 8.3 19:54:27 10° WNW 04:10:52 59° ESE 05:59:56 10° ESE visible
28 Aug 10.1 23:42:22 10° E 01:44:46 20° E 02:53:55 10° ESE visible
29 Aug 9.9 05:57:01 10° WNW 06:40:37 13° WNW 07:38:52 10° W visible
